"2016-02-09 00:00:00",1357851,4.045,165.1,8.48,1.457,10.42,102.6752,6.128,7.383,30.69,0,110.2,13.19,6.90,127.1
"2016-02-09 00:00:30",1357852,4.006,160.6,8.76,1.485,10.8,102.6752,6.128,7.311,30.71,0,110.2,13.19,6.90,122.6
"2016-02-09 00:01:00",1357853,2.355,150.1,3.464,0.153,8.29,102.6752,6.128,7.147,30.72,0,110.2,13.24,6.90,112.1
"2016-02-09 00:01:30",1357854,3.104,157.2,7.83,1.287,10.14,102.6747,6.126,7.246,30.91,0,110.2,13.19,6.90,119.2
"2016-02-09 00:02:00",1357855,2.886,167.6,9.23,1.165,10.09,102.6733,6.123,7.272,31.05,0,110.2,13.19,6.90,129.6
"2016-02-09 00:02:30",1357856,3.252,168.7,6.572,1.297,10.23,102.6702,6.115,7.249,31.04,0,110.2,13.19,6.89,130.7
"2016-02-09 00:03:00",1357857,3.369,168.3,7.104,1.369,10.06,102.6639,6.099,7.255,31.13,0,110.2,13.19,6.87,130.3
"2016-02-09 00:03:30",1357858,3.158,169.5,6.031,1.182,9.28,102.6586,6.085,7.269,31.18,0,110.2,13.19,6.86,131.5
"2016-02-09 00:04:00",1357859,3.108,170.2,6.912,1.151,9.77,102.6501,6.064,7.279,31.23,0,110.2,13.19,6.84,132.2
"2016-02-09 00:04:30",1357860,3.224,165.1,8.97,1.308,9.84,102.642,6.043,7.171,31.06,0,110.2,13.2,6.82,127.1
"2016-02-09 00:05:00",1357861,3.293,160.8,5.756,1.256,9.68,102.642,6.043,7.234,31.15,0,110.2,13.19,6.82,122.8
"2016-02-09 00:05:30",1357862,4.426,171.9,8.05,1.445,11.43,102.6425,6.044,7.337,31.19,0,110.1,13.19,6.82,133.9
"2016-02-09 00:06:00",1357863,4.32,172.1,7.71,1.485,10.38,102.6349,6.025,7.207,30.99,0,110.1,13.19,6.80,134.1
"2016-02-09 00:06:30",1357864,3.675,167.3,7.166,1.336,9.72,102.6263,6.003,7.186,31.04,0,110.1,13.19,6.78,129.3
"2016-02-09 00:07:00",1357865,3.204,167.1,5.413,1.019,9.33,102.6142,5.972,7.175,31.12,0,110.1,13.19,6.74,129.1
"2016-02-09 00:07:30",1357866,3.497,165.3,7.132,1.27,9.9,102.6159,5.976,7.171,31.26,0,110.1,13.19,6.75,127.3
"2016-02-09 00:08:00",1357867,3.933,167.3,8.73,1.402,11.03,102.612,5.966,7.169,31.37,0,110.1,13.19,6.74,129.3
"2016-02-09 00:08:30",1357868,3.57,166.8,7.053,1.256,10.54,102.5977,5.93,7.218,31.49,0,110.1,13.19,6.70,128.8
"2016-02-09 00:09:00",1357869,4.207,169.8,6.232,1.263,10.68,102.5919,5.915,7.121,31.46,0,110.1,13.19,6.69,131.8
"2016-02-09 00:09:30",1357870,3.817,166.5,6.393,1.299,10.12,102.5931,5.918,7.104,31.48,0,110.1,13.19,6.69,128.5
"2016-02-09 00:10:00",1357871,3.508,172,3.338,0.703,8.76,102.576,5.874,7.04,31.5,0,110.1,13.2,6.65,134.0
"2016-02-09 00:10:30",1357872,3.771,174.3,7.342,1.267,10.14,102.5699,5.859,7.046,31.52,0,110.1,13.2,6.63,136.3
"2016-02-09 00:11:00",1357873,4.252,177.2,4.898,1.405,10.79,102.5688,5.856,7.041,31.59,0,110.1,13.2,6.63,139.2
"2016-02-09 00:11:30",1357874,3.157,168.8,10.28,1.282,10.62,102.559,5.831,7.083,31.86,0,110.1,13.2,6.60,130.8
"2016-02-09 00:12:00",1357875,3.755,179.8,4.434,1.102,10.1,102.5429,5.79,7.021,31.84,0,110.1,13.2,6.56,141.8
"2016-02-09 00:12:30",1357876,4.14,171.9,10.54,1.312,11,102.5406,5.784,7.073,31.85,0,110.1,13.2,6.56,133.9
"2016-02-09 00:13:00",1357877,3.664,174.9,10.55,1.283,9.78,102.5279,5.752,6.951,31.84,0,110.1,13.2,6.52,136.9
"2016-02-09 00:13:30",1357878,2.655,180.5,3.78,0.273,8.17,102.5093,5.704,6.811,31.7,0,110.1,13.25,6.48,142.5
"2016-02-09 00:14:00",1357879,3.729,186.1,5.511,1.247,10.3,102.5068,5.697,6.92,31.83,0,110.1,13.21,6.47,148.1
"2016-02-09 00:14:30",1357880,4.411,183.9,8.8,1.447,11.53,102.5054,5.694,6.926,31.93,0,110.1,13.21,6.47,145.9
"2016-02-09 00:15:00",1357881,4.953,190.8,7.498,1.442,11.5,102.4904,5.656,6.95,31.78,0,110.1,13.21,6.43,152.8
"2016-02-09 00:15:30",1357882,4.237,185.9,7.27,1.27,10.94,102.4783,5.625,6.926,31.72,0,110.1,13.21,6.40,147.9
"2016-02-09 00:16:00",1357883,4.653,178.7,7.657,1.473,10.86,102.4729,5.611,6.833,31.8,0,110.1,13.21,6.38,140.7
"2016-02-09 00:16:30",1357884,2.999,166.6,5.605,0.217,8.44,102.4647,5.59,6.763,31.97,0,110.1,13.26,6.36,128.6
"2016-02-09 00:17:00",1357885,2.771,161.8,5.637,0.282,8.16,102.4452,5.54,6.69,32.06,0,110.1,13.26,6.31,123.8
"2016-02-09 00:17:30",1357886,4.005,162.7,10.11,1.519,11.21,102.4396,5.526,6.804,32.29,0,110.1,13.22,6.30,124.7
"2016-02-09 00:18:00",1357887,4.569,171.4,7.56,1.351,12.02,102.4408,5.529,6.853,32.41,0,110.1,13.22,6.30,133.4
"2016-02-09 00:18:30",1357888,4.301,167.1,9.44,1.419,11.61,102.4324,5.507,6.827,32.4,0,110.1,13.22,6.28,129.1
"2016-02-09 00:19:00",1357889,4.209,167.5,12.25,1.526,11.35,102.4183,5.472,6.754,32.32,0,110.1,13.22,6.24,129.5
"2016-02-09 00:19:30",1357890,3.178,159.9,7.757,1.186,10.04,102.415,5.463,6.674,32.41,0,110.1,13.22,6.23,121.9
"2016-02-09 00:20:00",1357891,2.441,158.7,4.08,0.242,8.25,102.4159,5.465,6.548,32.37,0,110.1,13.27,6.24,120.7
"2016-02-09 00:20:30",1357892,2.569,152.8,4.32,0.567,8.35,102.4097,5.45,6.545,32.39,0,110.1,13.22,6.22,114.8
"2016-02-09 00:21:00",1357893,3.374,157.1,13.27,1.497,10.92,102.4028,5.432,6.735,32.65,0,110.1,13.22,6.20,119.1
"2016-02-09 00:21:30",1357894,4.369,173.9,7.992,1.391,12.39,102.397,5.417,6.797,32.74,0,110.1,13.22,6.19,135.9
"2016-02-09 00:22:00",1357895,4.051,168.4,6.427,1.35,11.27,102.4002,5.425,6.659,32.55,0,110.1,13.22,6.20,130.4
"2016-02-09 00:22:30",1357896,3.952,170.5,7.809,1.531,10.8,102.3985,5.421,6.613,32.53,0,110.1,13.22,6.19,132.5
"2016-02-09 00:23:00",1357897,2.834,158.1,8.78,1.206,9.7,102.3904,5.4,6.546,32.63,0,110,13.22,6.17,120.1
"2016-02-09 00:23:30",1357898,2.231,152.9,4.641,0.194,8.17,102.3769,5.366,6.445,32.64,0,110,13.26,6.14,114.9
"2016-02-09 00:24:00",1357899,2.835,154.4,8.11,1.312,9.67,102.3721,5.353,6.508,32.74,0,110,13.22,6.12,116.4
"2016-02-09 00:24:30",1357900,3.61,153.4,7.368,1.354,10.69,102.3721,5.353,6.583,32.92,0,110.1,13.22,6.12,115.4
"2016-02-09 00:25:00",1357901,3.582,157.1,6.615,1.448,11.32,102.3701,5.348,6.597,33.01,0,110.1,13.22,6.12,119.1
"2016-02-09 00:25:30",1357902,3.352,155.1,7.951,1.374,11.5,102.3574,5.316,6.544,32.99,0,110.1,13.22,6.09,117.1
"2016-02-09 00:26:00",1357903,3.348,152.4,6.039,1.359,10.98,102.3427,5.278,6.584,33.12,0,110.1,13.22,6.05,114.4
"2016-02-09 00:26:30",1357904,2.181,141.4,8.01,0.94,8.94,102.3382,5.267,6.362,32.99,0,110,13.22,6.04,103.4
"2016-02-09 00:27:00",1357905,1.81,146.8,5.317,0.197,8.32,102.3382,5.267,6.349,33.08,0,110,13.27,6.04,108.8
"2016-02-09 00:27:30",1357906,2.521,156.9,7.046,1.106,8.94,102.3379,5.266,6.345,33.08,0,110,13.24,6.04,118.9
"2016-02-09 00:28:00",1357907,2.685,158.2,7.069,1.285,10.26,102.332,5.251,6.478,33.2,0,110,13.24,6.02,120.2
"2016-02-09 00:28:30",1357908,3.171,165.1,9.01,1.366,11.39,102.321,5.223,6.461,33.2,0,110,13.24,5.99,127.1
"2016-02-09 00:29:00",1357909,2.808,167,7.676,1.358,11.06,102.3196,5.219,6.454,33.16,0,110,13.24,5.99,129.0
"2016-02-09 00:29:30",1357910,3.056,162.7,7.956,1.402,11.09,102.3078,5.189,6.474,33.25,0,110,13.24,5.96,124.7
"2016-02-09 00:30:00",1357911,2.396,161.6,3.423,0.892,8.73,102.3118,5.199,6.3,33.13,0,110,13.24,5.97,123.6
"2016-02-09 00:30:30",1357912,2.041,158.7,3.92,0.196,8.2,102.3121,5.2,6.284,33.11,0,110,13.29,5.97,120.7
"2016-02-09 00:31:00",1357913,1.943,156.6,4.787,0.085,8.19,102.3043,5.18,6.254,33.14,0,110,13.25,5.95,118.6
"2016-02-09 00:31:30",1357914,2.806,165.6,8.42,1.322,10.3,102.301,5.172,6.409,33.3,0,110,13.25,5.94,127.6
"2016-02-09 00:32:00",1357915,3.264,173.9,7.396,1.395,12.4,102.2932,5.152,6.514,33.44,0,110,13.25,5.92,135.9
"2016-02-09 00:32:30",1357916,2.757,175.8,9.74,1.337,11.57,102.2958,5.159,6.417,33.42,0,110,13.25,5.93,137.8
"2016-02-09 00:33:00",1357917,3.144,176.4,8.76,1.432,11.5,102.2967,5.161,6.36,33.41,0,110,13.24,5.93,138.4
"2016-02-09 00:33:30",1357918,2.028,172.5,7.893,1.132,9.62,102.3008,5.171,6.305,33.42,0,110,13.25,5.94,134.5
"2016-02-09 00:34:00",1357919,1.472,174.2,2.804,0.163,8.21,102.2941,5.154,6.176,33.35,0,110,13.29,5.92,136.2
"2016-02-09 00:34:30",1357920,1.566,177.7,4.544,0.144,8.28,102.2856,5.132,6.173,33.4,0,110,13.29,5.90,139.7
"2016-02-09 00:35:00",1357921,2.217,175.2,7.725,1.265,9.79,102.272,5.098,6.239,33.49,0,110,13.25,5.87,137.2
"2016-02-09 00:35:30",1357922,2.993,177.3,7.502,1.428,11.38,102.2712,5.096,6.375,33.62,0,110,13.25,5.87,139.3
"2016-02-09 00:36:00",1357923,3.196,180.8,6.892,1.385,11.33,102.2712,5.096,6.296,33.5,0,110,13.25,5.87,142.8
"2016-02-09 00:36:30",1357924,3.424,180.9,7.645,1.339,11.21,102.2712,5.096,6.331,33.46,0,110,13.25,5.87,142.9
"2016-02-09 00:37:00",1357925,3.095,176.9,6.738,1.279,10.11,102.2712,5.096,6.31,33.47,0,110,13.25,5.87,138.9
"2016-02-09 00:37:30",1357926,2.109,169.7,2.666,0.15,8.08,102.2712,5.096,6.113,33.36,0,110,13.29,5.87,131.7
"2016-02-09 00:38:00",1357927,2.28,168.2,3.302,0.074,7.86,102.2712,5.096,6.11,33.31,0,110,13.29,5.87,130.2
"2016-02-09 00:38:30",1357928,2.968,166.6,6.976,1.133,9.01,102.2709,5.095,6.123,33.3,0,110,13.25,5.86,128.6
"2016-02-09 00:39:00",1357929,3.992,172,7.402,1.422,11.11,102.2636,5.076,6.277,33.48,0,110,13.24,5.85,134.0
"2016-02-09 00:39:30",1357930,4.648,172.5,7.855,1.306,11.83,102.252,5.047,6.287,33.5,0,110,13.25,5.82,134.5
"2016-02-09 00:40:00",1357931,4.058,171.9,7.029,1.472,11.02,102.2384,5.012,6.297,33.54,0,110,13.24,5.78,133.9
"2016-02-09 00:40:30",1357932,3.343,167.7,8.06,1.347,9.66,102.2399,5.016,6.167,33.51,0,110,13.24,5.79,129.7
"2016-02-09 00:41:00",1357933,2.251,166.9,1.165,0.085,8.08,102.2411,5.019,6.067,33.46,0,110,13.29,5.79,128.9
"2016-02-09 00:41:30",1357934,2.079,170.1,2.816,0.084,8.08,102.2366,5.007,6.042,33.5,0,110,13.29,5.78,132.1
"2016-02-09 00:42:00",1357935,2.273,182.3,6.96,0.856,9.24,102.2314,4.994,6.127,33.6,0,110,13.25,5.76,144.3
"2016-02-09 00:42:30",1357936,3.762,188.1,7.053,1.329,11.83,102.2219,4.97,6.246,33.74,0,110,13.24,5.74,150.1
"2016-02-09 00:43:00",1357937,3.577,182.8,8.49,1.33,11.88,102.225,4.978,6.275,33.84,0,110,13.25,5.75,144.8
"2016-02-09 00:43:30",1357938,3.106,180.3,7.074,1.37,10.9,102.2294,4.989,6.15,33.98,0,110,13.25,5.76,142.3
"2016-02-09 00:44:00",1357939,2.921,179.3,8.67,1.229,10.25,102.2269,4.983,6.177,34.14,0,110,13.25,5.75,141.3
"2016-02-09 00:44:30",1357940,2.13,167.9,2.3,0.098,7.732,102.221,4.968,5.97,34.22,0,110,13.3,5.74,129.9
"2016-02-09 00:45:00",1357941,2.044,176.3,3.38,0.188,7.997,102.2154,4.953,5.96,34.33,0,110,13.3,5.72,138.3
"2016-02-09 00:45:30",1357942,2.853,178.8,5.888,1.228,9.71,102.2041,4.924,6.045,34.36,0,110,13.26,5.69,140.8
"2016-02-09 00:46:00",1357943,3.449,181,7.702,1.431,11.09,102.2041,4.924,6.154,34.61,0,110,13.26,5.69,143.0
"2016-02-09 00:46:30",1357944,3.43,182.7,8.37,1.351,10.46,102.2041,4.924,6.109,34.66,0,110,13.26,5.69,144.7
"2016-02-09 00:47:00",1357945,3.872,185.4,6.596,1.401,11.52,102.1982,4.909,6.182,34.73,0,110,13.26,5.68,147.4
"2016-02-09 00:47:30",1357946,3.421,181.7,7.383,1.397,10.46,102.1781,4.858,6,34.58,0,110,13.26,5.63,143.7
"2016-02-09 00:48:00",1357947,1.815,170.9,1.424,0.098,8.16,102.1702,4.838,5.889,34.66,0,109.9,13.3,5.61,132.9
"2016-02-09 00:48:30",1357948,1.78,168.8,3.77,0.704,8.58,102.1702,4.838,5.896,34.97,0,109.9,13.26,5.61,130.8
"2016-02-09 00:49:00",1357949,2.626,176.2,6.571,1.345,10.08,102.1702,4.838,5.989,35.23,0,109.9,13.26,5.61,138.2
"2016-02-09 00:49:30",1357950,2.647,177.6,6.962,1.218,9.89,102.1674,4.831,5.956,35.26,0,109.9,13.26,5.60,139.6
"2016-02-09 00:50:00",1357951,2.7,175.6,5.574,1.201,9.44,102.1516,4.79,5.946,35.27,0,109.9,13.26,5.56,137.6
"2016-02-09 00:50:30",1357952,3.529,179.9,7.695,1.42,11.01,102.138,4.756,6.042,35.32,0,109.9,13.27,5.52,141.9
"2016-02-09 00:51:00",1357953,3.631,181.9,7.02,1.412,11.3,102.1363,4.751,6.001,35.18,0,109.9,13.27,5.52,143.9
"2016-02-09 00:51:30",1357954,2.453,175,2.693,0.677,8.44,102.136,4.751,5.811,34.96,0,109.9,13.27,5.52,137.0
"2016-02-09 00:52:00",1357955,2.779,178.5,4.293,0.776,8.6,102.1315,4.739,5.902,34.98,0,109.9,13.27,5.51,140.5
"2016-02-09 00:52:30",1357956,4.144,184.7,7.148,1.374,10.34,102.1225,4.716,5.902,34.84,0,109.9,13.27,5.48,146.7
"2016-02-09 00:53:00",1357957,2.999,177.6,5.946,0.975,9.03,102.116,4.699,5.917,34.92,0,109.9,13.27,5.47,139.6
"2016-02-09 00:53:30",1357958,4.299,182.7,7.472,1.437,10.94,102.1078,4.678,5.938,35.01,0,109.9,13.27,5.45,144.7
"2016-02-09 00:54:00",1357959,4.607,181.9,7.316,1.374,11.4,102.1024,4.665,5.974,35.09,0,109.9,13.27,5.43,143.9
"2016-02-09 00:54:30",1357960,4.32,182.7,7.52,1.392,11.37,102.1013,4.662,5.911,35.17,0,109.9,13.27,5.43,144.7
"2016-02-09 00:55:00",1357961,3.127,177.2,5.198,0.843,8.83,102.0942,4.644,5.783,35.17,0,109.9,13.27,5.41,139.2
"2016-02-09 00:55:30",1357962,4.269,184.9,6.958,1.369,10.56,102.0874,4.626,5.839,35.33,0,109.9,13.27,5.39,146.9
"2016-02-09 00:56:00",1357963,3.863,185.9,6.154,1.227,9.51,102.0841,4.618,5.797,35.37,0,109.9,13.27,5.39,147.9
"2016-02-09 00:56:30",1357964,3.787,190.2,5.059,1.062,9.18,102.0773,4.601,5.79,35.25,0,109.9,13.26,5.37,152.2
"2016-02-09 00:57:00",1357965,4.087,187.9,7.099,1.355,10.79,102.0786,4.604,5.9,35.45,0,109.9,13.26,5.37,149.9
"2016-02-09 00:57:30",1357966,3.988,186.6,7.258,1.322,10.72,102.0795,4.606,5.831,35.64,0,109.9,13.26,5.37,148.6
"2016-02-09 00:58:00",1357967,3.792,187.1,6.612,1.322,10.41,102.0815,4.611,5.799,35.65,0,109.9,13.27,5.38,149.1
"2016-02-09 00:58:30",1357968,3.764,188,7.516,1.264,10.67,102.082,4.613,5.842,35.71,0,109.9,13.27,5.38,150.0
"2016-02-09 00:59:00",1357969,3.81,187.3,6.832,1.239,9.99,102.0844,4.619,5.763,35.69,0,109.9,13.27,5.39,149.3
"2016-02-09 00:59:30",1357970,2.969,183.8,1.128,0.094,8,102.0799,4.607,5.649,35.49,0,109.9,13.31,5.38,145.8
"2016-02-09 01:00:00",1357971,4.012,189.5,7.049,1.342,9.8,102.0814,4.611,5.765,35.52,0,109.9,13.27,5.38,151.5
"2016-02-09 01:00:30",1357972,4.981,193.9,6.886,1.34,11.8,102.0783,4.603,5.801,35.49,0,109.9,13.27,5.37,155.9
"2016-02-09 01:01:00",1357973,4.981,193.1,7.136,1.387,11.74,102.0744,4.593,5.801,35.45,0,109.9,13.27,5.36,155.1
"2016-02-09 01:01:30",1357974,4.816,190.4,7.949,1.309,11.22,102.0755,4.596,5.765,35.38,0,109.9,13.27,5.36,152.4
"2016-02-09 01:02:00",1357975,4.65,187.8,7.956,1.288,10.43,102.0741,4.593,5.779,35.46,0,109.9,13.27,5.36,149.8
"2016-02-09 01:02:30",1357976,3.465,185.5,2.993,0.161,7.98,102.0753,4.595,5.606,35.28,0,109.9,13.32,5.36,147.5
"2016-02-09 01:03:00",1357977,3.928,192.7,5.551,1.12,9.16,102.0787,4.604,5.664,35.31,0,109.9,13.28,5.37,154.7
"2016-02-09 01:03:30",1357978,4.396,188.4,7.376,1.467,10.84,102.0782,4.603,5.813,35.56,0,109.9,13.28,5.37,150.4
"2016-02-09 01:04:00",1357979,5.027,195.2,7.624,1.395,12.35,102.0779,4.602,5.862,35.65,0,109.9,13.28,5.37,157.2
"2016-02-09 01:04:30",1357980,5.034,197.5,6.622,1.386,12.2,102.0805,4.609,5.823,35.47,0,109.9,13.28,5.38,159.5
"2016-02-09 01:05:00",1357981,4.231,191.4,6.481,1.33,10.59,102.0805,4.609,5.816,35.45,0,109.9,13.28,5.38,153.4
"2016-02-09 01:05:30",1357982,4.007,192.1,5.9,1.051,9.04,102.0813,4.611,5.622,35.16,0,109.9,13.28,5.38,154.1
"2016-02-09 01:06:00",1357983,3.435,190.1,1.895,0.122,8.03,102.0799,4.607,5.617,35.03,0,109.9,13.32,5.38,152.1
"2016-02-09 01:06:30",1357984,4.825,199,6.959,1.385,10.79,102.0819,4.612,5.747,35.11,0,109.9,13.28,5.38,161.0
"2016-02-09 01:07:00",1357985,5.071,199.9,7.226,1.349,11.97,102.0828,4.615,5.815,35.2,0,109.9,13.28,5.38,161.9
"2016-02-09 01:07:30",1357986,5.151,203.4,7.151,1.321,12.46,102.083,4.615,5.869,35.35,0,109.9,13.28,5.38,165.4
"2016-02-09 01:08:00",1357987,4.781,205.2,6.565,1.373,11.76,102.0839,4.617,5.846,35.26,0,109.9,13.28,5.39,167.2
"2016-02-09 01:08:30",1357988,3.275,204.7,5.802,0.722,8.79,102.0842,4.618,5.723,35.13,0,109.9,13.28,5.39,166.7
"2016-02-09 01:09:00",1357989,3.122,202.6,1.832,0.099,8.03,102.0842,4.618,5.617,34.9,0,109.9,13.32,5.39,164.6
"2016-02-09 01:09:30",1357990,3.374,205.7,4.383,0.823,8.54,102.0828,4.615,5.667,34.9,0,109.9,13.28,5.38,167.7
"2016-02-09 01:10:00",1357991,4.246,210.6,6.453,1.433,10.83,102.0853,4.621,5.802,34.97,0,109.9,13.28,5.39,172.6
"2016-02-09 01:10:30",1357992,4.799,213,7.095,1.38,11.9,102.0853,4.621,5.861,35.02,0,109.9,13.28,5.39,175.0
"2016-02-09 01:11:00",1357993,4.69,215.2,7.085,1.356,12.43,102.0862,4.623,5.888,35.18,0,109.9,13.28,5.39,177.2
"2016-02-09 01:11:30",1357994,4.118,215,7.015,1.353,10.38,102.0862,4.623,5.739,35.04,0,109.9,13.28,5.39,177.0
"2016-02-09 01:12:00",1357995,2.513,210.4,3.668,0.143,8.17,102.0864,4.624,5.632,35,0,109.9,13.32,5.39,172.4
"2016-02-09 01:12:30",1357996,2.707,208.7,3.243,0.214,8.31,102.0864,4.624,5.668,35.16,0,109.9,13.32,5.39,170.7
"2016-02-09 01:13:00",1357997,4.222,212.9,7.202,1.386,11.12,102.087,4.625,5.784,35.26,0,109.9,13.28,5.39,174.9
"2016-02-09 01:13:30",1357998,4.516,213.9,7.659,1.389,11.21,102.0876,4.627,5.877,35.33,0,109.9,13.28,5.40,175.9
"2016-02-09 01:14:00",1357999,5.078,213.4,7.104,1.369,11.7,102.0884,4.629,5.896,35.27,0,109.9,13.28,5.40,175.4
"2016-02-09 01:14:30",1358000,4.78,211.2,7.252,1.411,11.31,102.0898,4.633,5.828,35.1,0,109.9,13.28,5.40,173.2
"2016-02-09 01:15:00",1358001,3.703,207.4,6.276,1.086,9.58,102.0907,4.635,5.76,35,0,109.9,13.28,5.40,169.4
"2016-02-09 01:15:30",1358002,3.203,207.1,1.39,0.069,8.17,102.0932,4.641,5.663,35,0,109.9,13.32,5.41,169.1
"2016-02-09 01:16:00",1358003,4.326,213.3,6.568,1.348,10.38,102.091,4.635,5.84,35.25,0,109.9,13.28,5.40,175.3
"2016-02-09 01:16:30",1358004,5.19,212.2,7.037,1.489,10.42,102.0904,4.634,5.802,35.21,0,109.9,13.28,5.40,174.2
"2016-02-09 01:17:00",1358005,5.968,215.1,7.214,1.392,11.57,102.0913,4.636,5.899,35.04,0,109.9,13.29,5.40,177.1
"2016-02-09 01:17:30",1358006,5.907,216.6,6.952,1.333,11.42,102.0898,4.633,5.908,34.88,0,109.9,13.29,5.40,178.6
"2016-02-09 01:18:00",1358007,5.722,215.5,7.122,1.327,10.1,102.0907,4.635,5.823,34.75,0,109.9,13.28,5.40,177.5
"2016-02-09 01:18:30",1358008,5.224,210.6,1.351,0.07,7.048,102.0907,4.635,5.705,34.9,0,109.9,13.29,5.40,172.6
"2016-02-09 01:19:00",1358009,6.607,218.5,7.448,1.355,9.88,102.0913,4.636,5.841,35.23,0,109.9,13.29,5.40,180.5
"2016-02-09 01:19:30",1358010,6.424,215.2,7.255,1.276,9.8,102.0911,4.636,5.891,35.25,0,109.9,13.29,5.40,177.2
"2016-02-09 01:20:00",1358011,7.11,217.1,7.051,1.365,11.24,102.0863,4.624,5.898,35.1,0,109.9,13.29,5.39,179.1
"2016-02-09 01:20:30",1358012,7.453,219.4,7.485,1.317,11.35,102.0869,4.625,5.905,35.09,0,109.9,13.29,5.39,181.4
"2016-02-09 01:21:00",1358013,6.294,212,8.48,1.312,9.88,102.081,4.61,5.843,34.96,0,109.9,13.29,5.38,174.0
"2016-02-09 01:21:30",1358014,5.914,213.3,6.995,1.104,9.12,102.0781,4.603,5.823,34.95,0,109.9,13.29,5.37,175.3
"2016-02-09 01:22:00",1358015,6.162,216.7,8.25,1.458,10.11,102.0776,4.601,5.769,34.91,0,109.9,13.29,5.37,178.7
"2016-02-09 01:22:30",1358016,6.484,214.1,9.08,1.5,9.98,102.0677,4.576,5.737,35.05,0,109.9,13.29,5.34,176.1
"2016-02-09 01:23:00",1358017,7.159,216.3,7.768,1.491,11.51,102.0638,4.566,5.851,36.31,0,109.9,13.29,5.33,178.3
"2016-02-09 01:23:30",1358018,6.974,217.2,7.908,1.311,11.54,102.0517,4.535,5.857,36.13,0,109.9,13.29,5.30,179.2
"2016-02-09 01:24:00",1358019,5.243,216.2,5.778,1.388,9.55,102.0511,4.534,5.703,35.38,0,109.9,13.29,5.30,178.2
"2016-02-09 01:24:30",1358020,5.608,214.7,6.864,1.468,10.44,102.0517,4.535,5.741,35.28,0,109.9,13.29,5.30,176.7
"2016-02-09 01:25:00",1358021,5.674,209.2,7.102,1.04,9.21,102.0506,4.532,5.7,35.44,0,109.9,13.29,5.30,171.2
"2016-02-09 01:25:30",1358022,6.665,218.2,7.405,1.156,10.53,102.0433,4.514,5.708,36.4,0,109.9,13.29,5.28,180.2
"2016-02-09 01:26:00",1358023,6.813,220.9,7.669,1.384,11.45,102.0373,4.499,5.791,36.49,0,109.9,13.29,5.27,182.9
"2016-02-09 01:26:30",1358024,5.998,218.7,7.975,1.374,10.91,102.0365,4.496,5.756,35.91,0,109.9,13.29,5.26,180.7
"2016-02-09 01:27:00",1358025,4.936,213,6.7,1.095,9.27,102.0297,4.479,5.608,35.64,0,109.9,13.29,5.25,175.0
"2016-02-09 01:27:30",1358026,5.181,211.9,7.641,1.296,9.85,102.0215,4.458,5.72,35.78,0,109.9,13.29,5.23,173.9
"2016-02-09 01:28:00",1358027,5.235,212.3,7.85,1.384,9.87,102.0204,4.455,5.6,35.71,0,109.9,13.29,5.22,174.3
"2016-02-09 01:28:30",1358028,4.528,206,8.07,1.154,9.53,102.0189,4.452,5.604,35.64,0,109.9,13.29,5.22,168.0
"2016-02-09 01:29:00",1358029,5.694,211,7.548,1.335,11.57,102.0201,4.455,5.714,35.7,0,109.9,13.29,5.22,173.0
"2016-02-09 01:29:30",1358030,5.85,210.8,7.537,1.381,11.45,102.0201,4.455,5.675,35.72,0,109.9,13.28,5.22,172.8
"2016-02-09 01:30:00",1358031,4.943,208.5,7.855,1.196,9.38,102.0198,4.454,5.606,35.9,0,109.9,13.29,5.22,170.5
"2016-02-09 01:30:30",1358032,5.408,209.9,8.18,1.452,10.1,102.0178,4.449,5.602,35.92,0,109.9,13.28,5.22,171.9
"2016-02-09 01:31:00",1358033,4.932,205.6,6.782,1.287,9.7,102.0142,4.439,5.639,35.86,0,109.9,13.29,5.21,167.6
"2016-02-09 01:31:30",1358034,5.198,207.8,8.84,1.391,10.24,102.0085,4.425,5.573,35.94,0,109.9,13.28,5.19,169.8
"2016-02-09 01:32:00",1358035,5.41,206.7,6.881,1.337,11.41,102.004,4.413,5.699,36.23,0,109.9,13.29,5.18,168.7
"2016-02-09 01:32:30",1358036,4.88,208.8,7.369,1.318,10.58,102.0057,4.418,5.622,36.05,0,109.9,13.28,5.19,170.8
"2016-02-09 01:33:00",1358037,4.022,200.7,7.116,0.735,8.16,102.004,4.413,5.451,35.87,0,109.9,13.29,5.18,162.7
"2016-02-09 01:33:30",1358038,4.824,208,9.58,1.323,9.43,102.0066,4.42,5.628,36.28,0,109.9,13.29,5.19,170.0
"2016-02-09 01:34:00",1358039,4.674,208.2,8.6,1.424,9.8,102.0078,4.423,5.552,36.31,0,109.9,13.29,5.19,170.2
"2016-02-09 01:34:30",1358040,4.712,208.7,7.949,1.626,10.09,102.0055,4.417,5.616,36.46,0,109.9,13.29,5.18,170.7
"2016-02-09 01:35:00",1358041,6.162,211.1,6.818,1.354,11.43,101.9979,4.398,5.684,36.52,0,109.9,13.29,5.17,173.1
"2016-02-09 01:35:30",1358042,5.324,211.9,7.615,1.332,10.82,101.9951,4.391,5.622,36.62,0,109.9,13.29,5.16,173.9
"2016-02-09 01:36:00",1358043,4.952,213.4,6.876,1.241,8.8,101.9939,4.388,5.543,36.87,0,109.9,13.29,5.16,175.4
"2016-02-09 01:36:30",1358044,4.516,207,11.07,1.085,8.95,101.9942,4.388,5.543,36.94,0,109.9,13.3,5.16,169.0
"2016-02-09 01:37:00",1358045,5.486,213.4,9.56,1.445,10.84,101.994,4.388,5.602,36.81,0,109.9,13.29,5.16,175.4
"2016-02-09 01:37:30",1358046,5.663,215.1,6.849,1.469,10.73,101.9934,4.386,5.639,37.88,0,109.9,13.3,5.15,177.1
"2016-02-09 01:38:00",1358047,5.599,205.4,8.19,1.323,11.26,101.9942,4.388,5.632,37.64,0,109.9,13.3,5.16,167.4
"2016-02-09 01:38:30",1358048,5.099,206.8,7.7,1.386,10.22,101.9945,4.389,5.574,36.85,0,109.9,13.3,5.16,168.8
"2016-02-09 01:39:00",1358049,3.758,196.4,3.058,0.13,7.745,101.9934,4.386,5.434,36.42,0,109.9,13.34,5.15,158.4
"2016-02-09 01:39:30",1358050,5.087,197.5,7.093,1.362,9.13,101.9943,4.389,5.499,36.33,0,109.9,13.3,5.16,159.5
"2016-02-09 01:40:00",1358051,4.755,192.6,6.259,1.348,9.82,101.9946,4.389,5.528,36.27,0,109.9,13.3,5.16,154.6
"2016-02-09 01:40:30",1358052,5.215,199.4,7.465,1.427,11.28,101.9895,4.376,5.613,36.34,0,109.9,13.3,5.14,161.4
"2016-02-09 01:41:00",1358053,5.439,205.8,7.733,1.406,11.43,101.9878,4.372,5.622,36.35,0,109.9,13.3,5.14,167.8
"2016-02-09 01:41:30",1358054,5.406,208.5,7.58,1.485,10.12,101.9896,4.377,5.497,36.25,0,109.9,13.3,5.14,170.5
"2016-02-09 01:42:00",1358055,5.232,205.3,3.068,0.328,7.541,101.9876,4.372,5.4,36.89,0,109.9,13.34,5.14,167.3
"2016-02-09 01:42:30",1358056,6.017,208,7.991,1.347,9.1,101.9859,4.367,5.479,37.39,0,109.9,13.3,5.13,170.0
"2016-02-09 01:43:00",1358057,6.011,214,6.541,1.353,11.03,101.9839,4.362,5.612,36.88,0,109.9,13.3,5.13,176.0
"2016-02-09 01:43:30",1358058,4.607,213.2,6.953,1.438,11.24,101.9825,4.359,5.605,36.6,0,109.9,13.3,5.13,175.2
"2016-02-09 01:44:00",1358059,5.626,222,8.05,1.323,11.5,101.978,4.347,5.648,36.67,0,109.9,13.3,5.11,184.0
"2016-02-09 01:44:30",1358060,5.625,214.9,7.531,1.435,9.3,101.9777,4.346,5.471,37.51,0,109.9,13.3,5.11,176.9
"2016-02-09 01:45:00",1358061,3.935,204.1,5.712,0.27,7.534,101.9788,4.349,5.382,37.82,0,109.9,13.34,5.12,166.1
"2016-02-09 01:45:30",1358062,5.44,210,7.157,1.38,10.31,101.9752,4.34,5.539,37.59,0,109.9,13.29,5.11,172.0
"2016-02-09 01:46:00",1358063,5.49,212.9,6.384,1.468,10.8,101.9752,4.34,5.558,37.16,0,109.8,13.29,5.11,174.9
"2016-02-09 01:46:30",1358064,5.202,208.8,7.071,1.348,10.73,101.9723,4.333,5.556,36.87,0,109.9,13.29,5.10,170.8
"2016-02-09 01:47:00",1358065,4.759,202.3,7.345,1.486,10.59,101.9701,4.327,5.548,36.79,0,109.9,13.29,5.09,164.3
"2016-02-09 01:47:30",1358066,4.429,203.4,9.26,1.225,9.24,101.9692,4.325,5.477,36.89,0,109.9,13.29,5.09,165.4
"2016-02-09 01:48:00",1358067,3.584,198.1,3.603,0.142,7.64,101.9689,4.324,5.351,36.95,0,109.9,13.34,5.09,160.1
"2016-02-09 01:48:30",1358068,5.23,209.4,7.6,1.372,10.07,101.9684,4.322,5.53,37.02,0,109.9,13.29,5.09,171.4